Stevensville, MD

4:28 PM EDT on June 25, 2017 (GMT -0400)
Stevensville

Weather History for KW29 - August, 2014

Change the Weather History Date:

Wednesday, August 27, 2014

  Actual Average (KESN) Record (KESN)
Temperature  
Mean Temperature 75 °F -  
Max Temperature 86 °F 87 °F 99 °F (1948)
Min Temperature 64 °F 64 °F 52 °F (1954)
Cooling Degree Days 10    
Growing Degree Days 25 (Base 50)    
Moisture  
Dew Point 64 °F    
Average Humidity 68    
Maximum Humidity 100    
Minimum Humidity 35    
Precipitation  
Precipitation 0.00 in - - ()
Sea Level Pressure  
Sea Level Pressure 30.01 in    
Wind  
Wind Speed 2 mph (SW)    
Max Wind Speed 6 mph    
Max Gust Speed -    
Visibility 10 miles    
Events      
Averages and records for this station are not official NWS values.
T = Trace of Precipitation, MM = Missing Value Source: NWS Daily Summary

Daily Weather History Graph

Daily Weather History Graph

Search for Another Location

Airport or City:

Trip Planner

Search our weather history database for the weather conditions in past years. The results will help you decide how hot, cold, wet, or windy it might be!

Date:

Astronomy

Aug. 27, 2014 Rise Set
Actual Time 6:29 AM EDT 7:43 PM EDT
Civil Twilight 6:01 AM EDT 8:10 PM EDT
Nautical Twilight 5:28 AM EDT 8:43 PM EDT
Astronomical Twilight 4:54 AM EDT 9:18 PM EDT
Moon 8:22 AM EDT (8/27) 8:35 PM EDT (8/27)
Length of Visible Light 14h 08m
Length of Day
13h 13m
Waxing Crescent, 4% of the Moon is Illuminated
Aug 27
Waxing Crescent
Sep 2
First Quarter
Sep 8
Full
Sep 15
Last Quarter
Sep 24
New

Hourly Weather History & Observations

Time (EDT) Temp. Heat Index Dew Point Humidity Pressure Visibility Wind Dir Wind Speed Gust Speed Precip Events Conditions
12:12 AM 69.8 °F - 60.8 °F 73% 30.09 in 10.0 mi SSE 4.6 mph - N/A   Unknown
12:32 AM 69.8 °F - 60.8 °F 73% 30.08 in 10.0 mi SSE 4.6 mph - N/A   Unknown
12:52 AM 69.8 °F - 62.6 °F 78% 30.07 in 10.0 mi Calm Calm - N/A   Unknown
1:12 AM 69.8 °F - 62.6 °F 78% 30.08 in 10.0 mi Calm Calm - N/A   Unknown
1:32 AM 69.8 °F - 62.6 °F 78% 30.07 in 10.0 mi Calm Calm - N/A   Unknown
1:52 AM 68.0 °F - 62.6 °F 83% 30.06 in 10.0 mi Calm Calm - N/A   Unknown
2:12 AM 68.0 °F - 62.6 °F 83% 30.05 in 10.0 mi Calm Calm - N/A   Unknown
2:32 AM 68.0 °F - 62.6 °F 83% 30.06 in 10.0 mi Calm Calm - N/A   Unknown
2:52 AM 68.0 °F - 62.6 °F 83% 30.05 in 10.0 mi Calm Calm - N/A   Unknown
3:12 AM 68.0 °F - 62.6 °F 83% 30.06 in 10.0 mi Calm Calm - N/A   Unknown
3:32 AM 66.2 °F - 64.4 °F 94% 30.05 in 10.0 mi Calm Calm - N/A   Unknown
3:52 AM 66.2 °F - 64.4 °F 94% 30.05 in 10.0 mi Calm Calm - N/A   Unknown
4:12 AM 66.2 °F - 62.6 °F 88% 30.05 in 10.0 mi Calm Calm - N/A   Unknown
4:32 AM 66.2 °F - 64.4 °F 94% 30.05 in 10.0 mi Calm Calm - N/A   Unknown
4:52 AM 66.2 °F - 64.4 °F 94% 30.05 in 10.0 mi Calm Calm - N/A   Unknown
5:12 AM 66.2 °F - 64.4 °F 94% 30.05 in 10.0 mi Calm Calm - N/A   Unknown
5:32 AM 66.2 °F - 64.4 °F 94% 30.05 in 10.0 mi Calm Calm - N/A   Unknown
5:52 AM 64.4 °F - 64.4 °F 100% 30.06 in 10.0 mi Calm Calm - N/A   Unknown
6:12 AM 66.2 °F - 66.2 °F 100% 30.06 in 10.0 mi Calm Calm - N/A   Unknown
6:32 AM 66.2 °F - 66.2 °F 100% 30.07 in 10.0 mi Calm Calm - N/A   Unknown
6:52 AM 66.2 °F - 66.2 °F 100% 30.07 in 10.0 mi Calm Calm - N/A   Unknown
7:12 AM 68.0 °F - 66.2 °F 94% 30.08 in 10.0 mi Calm Calm - N/A   Unknown
7:32 AM 69.8 °F - 68.0 °F 94% 30.08 in 10.0 mi Calm Calm - N/A   Unknown
7:52 AM 69.8 °F - 68.0 °F 94% 30.08 in 10.0 mi Calm Calm - N/A   Unknown
8:12 AM 71.6 °F - 68.0 °F 88% 30.08 in 10.0 mi Calm Calm - N/A   Unknown
8:33 AM 73.4 °F - 68.0 °F 83% 30.08 in 10.0 mi Calm Calm - N/A   Unknown
8:53 AM 73.4 °F - 68.0 °F 83% 30.08 in 10.0 mi Calm Calm - N/A   Unknown
9:13 AM 75.2 °F - 68.0 °F 78% 30.08 in 10.0 mi Calm Calm - N/A   Unknown
9:33 AM 75.2 °F - 68.0 °F 78% 30.08 in 10.0 mi Calm Calm - N/A   Unknown
9:53 AM 77.0 °F - 68.0 °F 74% 30.07 in 10.0 mi Calm Calm - N/A   Unknown
10:13 AM 77.0 °F - 64.4 °F 65% 30.07 in 10.0 mi Calm Calm - N/A   Unknown
10:33 AM 78.8 °F - 64.4 °F 61% 30.07 in 10.0 mi Calm Calm - N/A   Unknown
10:53 AM 78.8 °F - 62.6 °F 57% 30.07 in 10.0 mi West 3.5 mph - N/A   Unknown
11:13 AM 78.8 °F - 64.4 °F 61% 30.07 in 10.0 mi West 5.8 mph - N/A   Unknown
11:33 AM 78.8 °F - 64.4 °F 61% 30.06 in 10.0 mi West 5.8 mph - N/A   Unknown
11:53 AM 78.8 °F - 62.6 °F 57% 30.05 in 10.0 mi West 4.6 mph - N/A   Unknown
12:13 PM 80.6 °F 81.5 °F 60.8 °F 51% 30.05 in 10.0 mi West 3.5 mph - N/A   Unknown
12:33 PM 80.6 °F 81.1 °F 59.0 °F 48% 30.04 in 10.0 mi WNW 3.5 mph - N/A   Unknown
12:53 PM 80.6 °F 81.5 °F 60.8 °F 51% 30.02 in 10.0 mi West 3.5 mph - N/A   Unknown
1:13 PM 82.4 °F 82.5 °F 59.0 °F 45% 30.01 in 10.0 mi West 3.5 mph - N/A   Unknown
1:33 PM 82.4 °F 82.5 °F 59.0 °F 45% 30.01 in 10.0 mi WNW 3.5 mph - N/A   Unknown
1:53 PM 84.2 °F 83.8 °F 59.0 °F 42% 30.00 in 10.0 mi West 5.8 mph - N/A   Unknown
2:13 PM 86.0 °F 84.5 °F 55.4 °F 35% 29.99 in 10.0 mi West 5.8 mph - N/A   Unknown
2:33 PM 86.0 °F 84.9 °F 57.2 °F 37% 29.98 in 10.0 mi West 5.8 mph - N/A   Unknown
3:13 PM 86.0 °F 85.4 °F 59.0 °F 40% 29.97 in 10.0 mi West 4.6 mph - N/A   Unknown
3:33 PM 86.0 °F 85.4 °F 59.0 °F 40% 29.96 in 10.0 mi SSW 4.6 mph - N/A   Unknown
3:53 PM 86.0 °F 85.4 °F 59.0 °F 40% 29.96 in 10.0 mi WSW 3.5 mph - N/A   Unknown
4:13 PM 86.0 °F 86.1 °F 60.8 °F 43% 29.94 in 10.0 mi West 4.6 mph - N/A   Unknown
4:33 PM 86.0 °F 86.1 °F 60.8 °F 43% 29.94 in 10.0 mi South 3.5 mph - N/A   Unknown
4:53 PM 86.0 °F 86.1 °F 60.8 °F 43% 29.94 in 10.0 mi South 5.8 mph - N/A   Unknown
5:13 PM 86.0 °F 86.6 °F 62.6 °F 45% 29.94 in 10.0 mi Calm Calm - N/A   Unknown
5:34 PM 86.0 °F 86.6 °F 62.6 °F 45% 29.94 in 10.0 mi SSE 5.8 mph - N/A   Unknown
5:54 PM 84.2 °F 85.0 °F 62.6 °F 48% 29.93 in 10.0 mi SSE 4.6 mph - N/A   Unknown
6:14 PM 84.2 °F 85.0 °F 62.6 °F 48% 29.93 in 10.0 mi South 5.8 mph - N/A   Unknown
6:34 PM 82.4 °F 83.4 °F 62.6 °F 51% 29.92 in 10.0 mi South 3.5 mph - N/A   Unknown
6:54 PM 82.4 °F 83.4 °F 62.6 °F 51% 29.92 in 10.0 mi South 3.5 mph - N/A   Unknown
7:14 PM 80.6 °F 81.8 °F 62.6 °F 54% 29.91 in 10.0 mi South 4.6 mph - N/A   Unknown
7:34 PM 80.6 °F 81.8 °F 62.6 °F 54% 29.91 in 10.0 mi South 4.6 mph - N/A   Unknown
7:54 PM 80.6 °F 81.8 °F 62.6 °F 54% 29.91 in 10.0 mi South 4.6 mph - N/A   Unknown
8:14 PM 78.8 °F - 62.6 °F 57% 29.91 in 10.0 mi South 4.6 mph - N/A   Unknown
8:34 PM 78.8 °F - 62.6 °F 57% 29.91 in 10.0 mi South 4.6 mph - N/A   Unknown
8:54 PM 78.8 °F - 62.6 °F 57% 29.92 in 10.0 mi South 3.5 mph - N/A   Unknown
9:14 PM 77.0 °F - 64.4 °F 65% 29.92 in 10.0 mi Calm Calm - N/A   Unknown
9:34 PM 77.0 °F - 66.2 °F 69% 29.92 in 10.0 mi Calm Calm - N/A   Unknown
9:54 PM 77.0 °F - 68.0 °F 74% 29.91 in 10.0 mi South 3.5 mph - N/A   Unknown
10:14 PM 77.0 °F - 68.0 °F 74% 29.91 in 10.0 mi Calm Calm - N/A   Unknown
10:34 PM 78.8 °F - 68.0 °F 69% 29.91 in 10.0 mi Calm Calm - N/A   Unknown
10:54 PM 77.0 °F - 68.0 °F 74% 29.91 in 10.0 mi Calm Calm - N/A   Unknown
11:14 PM 77.0 °F - 68.0 °F 74% 29.91 in 10.0 mi Calm Calm - N/A   Unknown
11:34 PM 77.0 °F - 68.0 °F 74% 29.90 in 10.0 mi Calm Calm - N/A   Unknown
11:54 PM 77.0 °F - 68.0 °F 74% 29.90 in 10.0 mi WSW 3.5 mph - N/A   Unknown